Weather History for Niagara Falls, NY

Change the Weather History Date:

Tuesday, June 18, 2013

  Actual Average Record
Temperature  
Mean Temperature 64 °F -  
Max Temperature 70 °F 74 °F 90 °F (2006)
Min Temperature 55 °F 55 °F 45 °F (2002)
Degree Days  
Heating Degree Days 2    
Growing Degree Days 14 (Base 50)    
Moisture  
Dew Point 51 °F    
Average Humidity 69    
Maximum Humidity 90    
Minimum Humidity 42    
Precipitation  
Precipitation 0.00 in - - ()
Sea Level Pressure  
Sea Level Pressure 29.96 in    
Wind  
Wind Speed 8 mph (NE)    
Max Wind Speed 16 mph    
Max Gust Speed 21 mph    
Visibility 10 miles    
Events      
Averages and records for this station are not official NWS values.
T = Trace of Precipitation, MM = Missing Value Source: NWS Daily Summary

Daily Weather History Graph

Daily Weather History Graph

Search for Another Location

Airport:

Trip Planner

Search our weather history database for the weather conditions in past years. The results will help you decide how hot, cold, wet, or windy it might be!

Date:

Astronomy

Jun. 18, 2013 Rise Set
Actual Time 5:35 AM EDT 8:58 PM EDT
Civil Twilight 5:00 AM EDT 9:33 PM EDT
Nautical Twilight 4:14 AM EDT 10:19 PM EDT
Astronomical Twilight 3:16 AM EDT 11:17 PM EDT
Moon 3:34 PM EDT (6/18) 1:50 AM EDT (6/18)
Length of Visible Light 16h 33m
Length of Day
15h 22m
Waxing Gibbous, 70% of the Moon is Illuminated
Jun 18
Waxing Gibbous
Jun 23
Full
Jun 30
Last Quarter
Jul 8
New
Jul 15
First Quarter

Hourly Weather History & Observations

Time (EDT) Temp. Dew Point Humidity Pressure Visibility Wind Dir Wind Speed Gust Speed Precip Events Conditions
12:53 AM 63.0 °F 54.0 °F 72% 29.92 in 10.0 mi NNE 4.6 mph - N/A   Scattered Clouds
1:53 AM 62.1 °F 54.0 °F 75% 29.91 in 10.0 mi NNW 5.8 mph - N/A   Scattered Clouds
2:53 AM 61.0 °F 55.0 °F 81% 29.89 in 10.0 mi NNE 8.1 mph - N/A   Mostly Cloudy
3:53 AM 59.0 °F 55.9 °F 90% 29.89 in 10.0 mi NE 8.1 mph - N/A   Scattered Clouds
4:00 AM 59.0 °F 55.4 °F 88% 29.90 in 10.0 mi NE 8.1 mph - N/A   Mostly Cloudy
4:11 AM 59.0 °F 55.4 °F 88% 29.89 in 10.0 mi NE 8.1 mph - N/A   Mostly Cloudy
4:53 AM 57.9 °F 55.0 °F 90% 29.90 in 10.0 mi NE 8.1 mph - N/A   Overcast
5:19 AM 57.2 °F 53.6 °F 88% 29.92 in 10.0 mi NE 9.2 mph - N/A   Overcast
5:35 AM 57.2 °F 53.6 °F 88% 29.93 in 10.0 mi ENE 5.8 mph - N/A   Overcast
5:53 AM 57.0 °F 51.1 °F 81% 29.94 in 10.0 mi NE 5.8 mph - N/A   Overcast
6:53 AM 57.0 °F 51.1 °F 81% 29.95 in 10.0 mi NE 8.1 mph - N/A   Partly Cloudy
7:05 AM 57.2 °F 51.8 °F 82% 29.96 in 10.0 mi NNE 10.4 mph - N/A   Mostly Cloudy
7:53 AM 57.0 °F 51.1 °F 81% 29.97 in 10.0 mi NNE 16.1 mph 20.7 mph N/A   Mostly Cloudy
8:53 AM 57.9 °F 50.0 °F 75% 29.98 in 10.0 mi NE 13.8 mph - N/A   Mostly Cloudy
9:53 AM 61.0 °F 51.1 °F 70% 30.00 in 10.0 mi NE 10.4 mph - N/A   Overcast
10:53 AM 63.0 °F 53.1 °F 70% 29.99 in 10.0 mi East 8.1 mph - N/A   Mostly Cloudy
11:53 AM 64.0 °F 52.0 °F 65% 30.00 in 10.0 mi NE 8.1 mph - N/A   Mostly Cloudy
12:53 PM 66.9 °F 51.1 °F 57% 30.00 in 10.0 mi NE 12.7 mph 17.3 mph N/A   Mostly Cloudy
1:53 PM 68.0 °F 48.9 °F 50% 30.00 in 10.0 mi NE 13.8 mph - N/A   Scattered Clouds
2:53 PM 68.0 °F 46.9 °F 47% 29.99 in 10.0 mi NNE 11.5 mph 18.4 mph N/A   Scattered Clouds
3:53 PM 69.1 °F 46.0 °F 44% 29.99 in 10.0 mi NE 9.2 mph 17.3 mph N/A   Scattered Clouds
4:53 PM 70.0 °F 46.0 °F 42% 29.98 in 10.0 mi NNE 10.4 mph 18.4 mph N/A   Scattered Clouds
5:53 PM 69.1 °F 45.0 °F 42% 29.97 in 10.0 mi NNE 9.2 mph - N/A   Scattered Clouds
6:53 PM 68.0 °F 44.1 °F 42% 29.98 in 10.0 mi NE 9.2 mph - N/A   Partly Cloudy
7:53 PM 66.9 °F 46.0 °F 47% 29.99 in 10.0 mi NE 6.9 mph - N/A   Clear
8:53 PM 63.0 °F 46.0 °F 54% 30.01 in 10.0 mi North 5.8 mph - N/A   Partly Cloudy
9:53 PM 60.1 °F 46.9 °F 62% 30.02 in 10.0 mi NNE 5.8 mph - N/A   Partly Cloudy
10:53 PM 57.0 °F 50.0 °F 77% 30.04 in 10.0 mi NNW 6.9 mph - N/A   Clear
11:53 PM 55.9 °F 51.1 °F 84% 30.04 in 10.0 mi NNW 3.5 mph - N/A   Clear